RH
97 96 97 98 99 98 95 95 94 99 97 99 96 94 85 83 91 93 84 85 65 70 69 54 47 46 38 55 50 41 39 37 34 33 38 40 41 39 48 39 36 40 39 35 33 31 31
96 96 95 97 99 100 100 97 94 91 98 99 98 92 82 82 82 82 86 69 70 66 50 42 42 37 41 65 43 41 41 35 37 34 39 40 44 40 39 39 41 40 38 38 33 30 29
94 94 92 95 96 100 100 99 95 92 87 87 79 78 81 78 71 69 72 70 64 45 42 41 44 39 46 53 42 40 41 42 38 36 42 39 40 39 38 42 34 34 37 37 35 32 33
91 94 94 91 96 89 93 96 98 91 96 88 73 70 62 60 59 59 57 55 48 42 43 41 37 39 54 39 38 35 38 38 39 39 36 37 36 38 41 35 38 36 42 42 33 32 32
89 88 90 94 95 96 95 92 93 94 84 73 64 57 56 51 48 47 45 43 39 37 37 36 36 41 54 38 40 40 39 41 38 36 38 36 36 47 53 63 66 60 56 44 33 33 31
91 92 88 94 95 96 93 74 70 65 65 60 55 50 48 48 48 42 41 38 36 34 36 37 34 36 41 44 40 39 37 38 40 37 42 44 60 62 63 78 63 59 52 45 39 46 54
92 90 90 94 91 96 97 74 59 53 51 50 52 47 44 40 39 41 45 48 42 54 43 53 48 50 45 43 34 35 40 38 36 46 49 50 72 73 51 47 47 47 53 60 56 52 61
92 94 94 97 94 90 75 65 63 60 56 52 44 43 41 44 44 42 46 70 70 48 57 45 45 46 44 45 45 40 39 45 49 64 54 67 68 48 45 47 53 62 72 77 68 59 62
100 99 98 99 98 92 83 50 52 53 54 54 50 45 45 44 45 39 51 66 57 52 60 42 43 46 46 44 48 46 45 48 50 60 63 66 54 43 48 55 63 68 74 71 80 72 62
96 98 100 99 98 98 91 54 48 50 50 46 41 47 43 45 42 52 54 58 51 51 71 46 50 42 41 39 44 35 39 47 48 54 62 56 46 48 53 60 65 84 63 66 75 84 87
94 92 93 99 99 95 92 55 50 49 47 50 44 50 50 39 48 45 51 50 44 44 45 31 46 34 40 37 34 37 38 44 53 52 61 58 55 54 62 58 55 70 64 71 85 70 88
94 92 91 99 99 91 68 49 48 45 44 45 49 49 49 40 38 48 44 49 51 64 34 57 45 46 44 42 35 40 43 42 42 51 51 53 49 50 56 52 58 72 84 79 81 80 96
98 99 100 100 100 83 49 36 44 44 41 45 47 46 47 54 55 46 53 56 69 57 38 36 55 55 57 51 44 55 54 66 74 82 89 71 56 50 47 68 70 76 87 93 84 97 88
68 75 57 94 98 69 63 38 35 45 40 46 50 43 48 50 48 46 57 62 42 47 54 43 60 56 55 59 58 70 60 78 56 75 94 87 60 74 59 68 78 89 85 89 78 96 97
80 74 53 41 56 71 70 60 33 35 40 39 45 50 40 43 42 49 58 81 58 53 47 59 61 68 54 56 62 76 73 77 59 62 78 85 65 68 58 64 69 80 98 78 91 92 96
78 80 76 64 41 38 50 65 50 35 38 33 42 46 41 39 43 55 73 71 55 47 46 56 59 60 75 78 64 78 82 49 56 53 64 79 80 57 58 63 75 82 77 88 93 95 98
71 76 78 76 70 49 38 50 57 32 33 42 46 66 43 39 57 70 83 68 53 44 51 58 56 52 49 59 60 74 76 56 47 56 54 76 80 61 60 80 86 91 94 91 91 94 98
68 70 74 73 74 73 52 38 54 32 41 49 60 58 47 46 73 88 72 53 44 50 49 56 52 52 49 46 56 80 82 68 57 55 65 64 84 99 75 58 66 79 85 84 91 79 95
70 68 70 74 73 71 73 50 40 48 39 56 66 66 51 49 82 74 56 53 52 57 56 54 51 47 44 50 60 63 70 54 53 57 62 64 81 95 47 65 61 74 78 78 78 87 97
79 76 72 68 72 73 72 70 39 46 44 51 75 69 61 68 69 58 52 52 56 51 48 45 48 44 49 54 53 53 54 52 54 53 56 58 80 78 52 39 69 77 73 75 81 98 91
98 84 76 76 69 70 73 72 60 37 43 49 74 62 58 76 52 49 50 48 51 54 50 46 52 53 57 60 54 61 52 63 58 54 63 69 94 88 82 76 75 77 74 71 89 74 78
97 98 95 82 79 73 72 74 72 39 42 40 59 56 66 65 52 45 51 49 49 44 52 54 58 50 58 62 56 54 51 53 62 72 70 79 92 88 88 70 74 80 72 68 64 65 73
97 97 99 97 89 83 78 74 78 61 38 49 56 57 60 63 56 50 52 41 45 44 39 44 54 53 59 59 53 54 54 54 53 77 84 86 93 86 95 73 74 75 66 63 63 62 58
97 98 97 96 91 91 92 86 81 82 48 59 53 59 68 61 61 54 46 44 42 48 40 43 47 53 48 47 48 54 64 66 66 67 72 82 81 81 96 81 43 29 42 49 56 53 52
92 98 97 91 89 87 90 93 89 86 78 51 60 59 75 65 64 57 52 46 43 46 52 50 47 49 48 51 68 68 69 65 69 70 76 70 76 86 100 99 63 36 45 55 60 47 46
91 92 96 92 88 90 90 86 93 91 89 69 67 56 66 74 69 50 43 44 55 57 58 47 49 52 54 66 69 66 78 60 72 85 69 78 70 84 91 100 72 24 44 50 36 43 34
88 88 96 95 91 90 89 97 93 99 93 90 71 66 63 78 71 56 51 46 50 56 59 58 55 61 60 78 79 82 67 48 65 86 94 82 75 85 79 82 76 53 46 43 29 20 32
97 89 98 98 96 90 89 87 86 100 100 96 80 76 63 81 81 60 43 46 49 54 56 54 60 74 83 78 78 71 72 56 62 59 84 87 92 92 78 84 81 51 61 52 32 35 37
90 92 98 98 98 97 90 86 87 95 100 100 92 81 80 70 71 61 54 50 42 39 57 61 61 74 74 67 76 70 66 71 67 63 69 72 61 76 74 66 42 55 51 46 42 38 40
Wind_Speed
31 33 33 32 28 28 28 29 32 30 32 31 29 29 27 25 23 22 21 19 20 17 10 9 9 7 6 7 5 13 16 15 12 15 18 5 6 3 4 3 3 3 2 3 3 1 3
31 32 32 32 32 30 31 32 30 31 29 30 27 28 27 24 22 22 20 20 19 14 7 18 9 10 7 10 11 12 14 13 17 15 19 13 3 3 5 3 3 1 3 5 4 1 2
30 30 30 30 31 30 30 30 31 31 29 28 27 26 25 23 21 20 19 19 17 12 11 14 9 17 23 7 12 11 9 15 15 14 5 11 8 5 1 3 1 1 4 5 2 2 3
30 30 29 28 29 29 28 28 27 26 25 25 27 27 25 24 22 20 20 17 14 10 7 8 15 17 6 11 11 11 7 12 10 12 8 10 7 5 4 1 4 3 4 3 2 2 1
28 29 28 28 26 25 25 25 25 24 24 25 25 26 23 20 19 18 18 13 5 5 12 8 7 8 4 7 11 14 8 6 7 10 8 7 5 4 5 4 5 6 0 0 2 6 4
26 27 27 27 25 23 22 23 24 24 23 21 19 20 18 15 14 14 18 19 22 8 7 4 10 6 5 5 8 10 8 9 3 6 5 7 5 4 5 5 3 2 2 3 4 5 4
23 24 25 25 24 22 19 18 20 21 20 17 13 13 15 13 9 4 1 2 6 7 18 6 1 6 1 4 10 12 12 6 4 7 4 5 8 3 2 2 2 1 1 3 5 1 6
20 21 22 23 23 21 17 14 13 14 15 15 12 7 7 14 9 5 5 6 3 5 7 8 6 4 2 4 4 15 11 4 6 4 3 7 3 2 2 2 2 3 2 5 6 3 5
17 19 20 22 22 20 18 13 12 12 10 10 10 8 6 8 11 22 20 7 4 3 6 3 2 3 3 4 3 7 5 2 4 5 5 5 4 1 1 1 2 2 2 2 4 8 1
18 18 19 20 20 19 17 14 12 12 12 9 8 7 4 1 4 5 5 5 2 2 5 9 6 5 4 2 4 3 5 2 5 3 2 3 2 2 1 0 4 2 2 1 3 5 3
17 17 18 18 20 19 17 15 13 12 12 12 8 6 6 7 4 4 2 6 2 2 6 6 6 5 6 4 2 7 4 4 3 1 4 2 3 1 2 1 3 5 2 2 1 6 5
19 17 16 17 18 18 18 14 10 9 10 11 10 5 4 4 6 3 4 5 2 6 2 5 4 6 4 6 4 6 4 5 1 2 2 0 1 2 2 0 2 3 4 4 3 1 2
19 18 18 17 17 18 18 15 11 6 8 9 9 11 7 3 2 4 5 3 5 7 2 4 2 5 1 5 5 6 4 6 3 4 5 5 1 1 1 1 2 6 5 3 5 2 5
19 18 19 18 18 19 19 17 12 7 5 6 8 8 10 8 5 5 2 5 9 3 3 2 3 2 3 6 4 7 3 3 4 4 3 3 6 1 1 2 4 2 5 4 5 1 5
18 19 20 20 20 19 20 20 15 7 2 3 4 5 6 8 7 5 5 6 6 5 2 4 3 6 4 1 1 4 4 2 1 2 4 2 5 1 1 2 5 4 2 3 2 2 3
16 18 19 21 21 21 21 20 19 11 3 2 2 2 5 8 7 3 5 4 2 3 2 2 3 3 2 3 3 4 1 2 1 1 2 3 3 3 2 2 1 4 5 1 1 3 5
15 16 17 20 21 22 22 22 21 14 4 2 2 3 7 8 4 5 4 3 2 2 2 2 2 1 2 1 3 2 3 3 2 1 2 4 3 5 1 5 7 4 1 3 1 2 4
14 15 16 17 19 22 23 23 24 19 6 2 2 3 6 6 4 2 2 1 2 2 1 1 2 2 2 2 2 1 4 6 6 5 3 5 4 4 9 3 6 5 7 5 4 4 3
12 14 15 16 17 19 22 23 23 22 16 3 2 1 3 3 3 2 2 2 1 3 2 2 2 2 1 2 2 4 4 3 7 6 5 3 2 4 6 5 1 4 5 4 3 2 6
13 13 14 15 17 18 19 22 22 21 15 4 3 2 4 5 1 5 2 1 1 1 1 2 2 1 1 2 4 2 2 3 5 4 5 3 3 6 6 4 2 4 4 6 6 3 3
16 15 14 14 15 16 18 19 21 21 14 4 3 1 2 2 3 1 2 2 2 2 1 1 2 4 4 2 2 4 3 1 1 4 3 3 4 4 11 16 13 16 17 14 13 14 8
14 16 16 15 15 15 16 17 19 20 11 6 2 2 2 1 2 1 2 4 5 2 5 3 4 1 5 5 6 3 2 3 6 1 4 1 4 4 7 8 8 13 16 18 20 21 20
13 14 15 16 16 15 15 15 16 18 10 5 3 2 3 2 1 2 3 2 3 3 3 4 6 2 4 8 5 5 5 3 4 8 7 4 1 5 6 6 13 8 9 17 8 6 20
13 12 13 14 14 14 13 13 13 14 13 5 3 2 3 3 1 4 2 5 4 4 3 2 4 4 3 1 3 2 3 6 6 6 6 5 3 1 5 8 4 5 5 5 13 9 18
15 14 13 12 11 11 12 11 10 9 9 5 3 1 2 2 3 6 5 5 1 2 4 4 4 3 2 3 3 4 2 2 2 2 7 5 4 3 2 2 10 7 2 4 7 9 18
16 15 14 12 11 11 10 10 9 8 6 4 2 0 2 2 4 2 2 2 3 2 4 3 2 0 3 2 2 1 3 3 2 1 2 4 3 4 1 2 5 4 2 1 3 6 6
16 17 16 13 11 11 12 10 10 8 7 4 2 2 2 2 4 4 4 3 4 1 2 2 2 2 2 2 2 3 4 2 3 5 5 4 5 12 9 7 10 12 6 1 1 6 5
16 17 16 14 12 11 11 12 11 11 10 8 4 5 4 3 5 6 4 4 2 2 3 2 2 1 2 3 3 4 4 4 2 4 6 9 8 5 6 6 10 9 5 9 7 3 3
17 17 16 16 15 13 12 11 12 13 12 13 6 8 9 5 5 6 10 16 11 7 5 3 2 3 4 2 2 1 3 2 4 4 2 3 8 6 12 9 5 9 7 11 2 5 5
Wind_Direction
46 49 44 44 48 53 51 59 62 70 80 95 94 96 98 102 106 109 112 120 130 127 105 19 8 34 71 57 59 358 11 20 36 56 47 39 45 46 89 88 51 58 5 358 8 305 250
47 48 49 45 44 48 58 63 73 77 77 84 87 93 95 97 101 107 115 129 129 115 77 52 59 74 72 74 353 6 26 35 37 48 46 47 35 331 94 73 85 34 343 290 292 266 328
47 49 51 49 45 46 50 58 66 74 74 77 81 85 91 94 97 99 107 118 121 113 73 48 45 61 58 67 26 36 43 39 36 46 51 35 14 76 24 82 360 60 6 331 227 228 227
47 46 48 52 54 48 49 55 59 62 72 80 86 89 89 88 91 97 109 119 125 115 62 60 71 72 78 42 34 35 28 35 41 45 54 27 38 92 57 315 21 40 50 20 331 142 305
49 45 44 45 49 55 55 55 60 67 74 80 88 88 83 85 89 98 104 106 70 58 59 73 46 88 48 341 13 17 24 14 24 26 42 34 54 71 33 57 14 12 238 277 305 39 348
48 46 43 41 44 45 49 58 64 68 72 72 80 81 74 69 75 102 106 79 70 79 33 44 38 60 7 325 336 343 10 9 16 349 29 42 48 64 29 59 218 288 330 313 262 354 356
44 45 41 38 35 42 45 61 68 68 66 64 74 89 72 80 97 102 186 85 29 14 42 84 109 97 51 340 40 7 354 347 18 44 66 21 65 89 95 80 126 157 283 284 270 336 332
40 39 38 38 37 34 46 56 61 67 68 67 69 88 46 40 40 87 108 67 55 145 73 59 70 65 41 354 8 353 10 63 43 60 40 30 100 226 168 105 70 44 322 299 292 333 342
37 36 34 33 38 38 40 52 49 47 55 58 61 70 82 83 72 83 83 77 74 140 90 17 78 65 310 15 31 333 24 12 84 48 36 120 197 243 125 34 90 306 224 268 238 320 259
38 35 32 31 33 37 43 52 55 57 53 50 59 73 77 37 64 46 51 33 13 127 80 336 351 2 354 10 23 356 14 77 36 108 115 108 203 183 182 242 112 301 321 339 340 36 275
36 34 36 33 31 31 37 50 57 62 51 43 65 82 67 83 107 68 10 356 1 73 60 305 328 315 309 93 268 358 10 34 86 118 96 232 172 218 235 200 144 235 306 326 192 312 359
45 46 42 37 35 34 34 39 50 45 44 37 46 68 109 85 71 62 359 358 37 43 284 341 332 354 18 10 20 338 26 40 70 62 32 173 63 175 207 29 62 41 43 27 23 52 355
39 40 36 35 35 36 35 35 35 46 38 38 46 53 76 64 58 7 350 67 40 89 16 299 329 6 354 345 12 27 39 18 62 50 359 343 279 190 155 123 20 67 51 339 350 343 231
38 36 35 33 30 35 34 31 31 38 57 50 45 51 52 51 26 357 1 54 70 230 208 216 7 352 66 12 29 354 74 23 29 76 97 93 323 172 209 152 172 127 142 155 235 264 274
35 35 33 32 30 29 27 27 27 27 72 53 55 33 37 17 0 343 72 51 180 215 161 142 22 61 336 41 114 45 19 197 207 82 128 95 281 258 235 102 123 270 312 175 109 238 275
27 29 28 29 28 26 22 23 22 24 34 48 81 45 15 357 351 6 72 131 177 171 116 116 140 146 189 269 51 44 6 277 235 65 104 197 342 234 150 110 80 152 154 147 131 308 293
26 24 24 22 23 23 23 20 19 23 28 38 87 56 354 349 352 49 102 182 143 113 93 178 221 165 252 238 154 189 224 301 230 186 140 145 105 291 89 198 183 165 237 203 249 182 195
16 19 20 19 18 18 20 19 16 18 29 45 72 45 348 350 47 37 77 33 153 167 4 285 164 227 232 212 207 210 216 212 193 159 179 200 166 260 227 276 191 175 191 165 133 258 201
9 10 11 12 14 15 14 15 15 15 17 354 94 240 350 350 87 19 286 71 35 147 224 223 271 208 126 253 298 205 205 222 176 164 178 170 254 321 344 357 348 219 208 192 141 102 220
7 4 3 3 7 11 12 11 12 11 9 32 73 39 334 44 78 124 137 195 148 293 278 215 254 11 24 276 215 266 248 211 190 190 154 157 218 207 212 204 145 230 215 205 176 154 218
13 6 1 357 358 3 6 10 9 7 9 38 38 301 193 324 348 38 120 180 184 225 213 197 298 225 185 270 280 221 230 74 175 208 151 160 257 229 256 260 254 254 248 226 212 212 201
2 5 4 357 353 355 0 5 8 9 13 68 76 60 11 256 306 72 349 209 186 226 163 227 198 170 194 228 207 233 147 188 219 153 172 192 276 320 284 267 237 253 243 232 231 233 244
351 354 352 355 353 352 354 0 6 12 21 68 56 74 102 316 17 82 223 211 227 177 224 210 193 212 253 243 224 222 214 228 215 165 191 172 243 341 271 318 305 277 235 209 197 203 221
333 344 346 343 348 347 348 351 360 11 22 40 56 75 77 287 183 213 220 205 220 225 265 234 176 168 231 129 289 226 215 235 204 223 177 159 164 235 286 330 329 260 278 190 207 228 217
322 330 334 334 330 336 335 340 345 353 8 20 29 84 119 277 232 288 243 220 250 270 230 232 244 212 109 46 0 337 343 354 246 207 203 178 141 267 274 271 287 293 222 150 180 276 220
309 316 319 323 321 319 323 323 326 326 338 352 331 76 122 119 245 294 281 207 222 222 321 220 92 119 65 90 80 287 252 240 240 264 38 142 167 157 199 257 255 247 204 176 104 285 219
298 304 307 307 308 311 313 314 306 299 297 302 260 219 159 205 265 180 215 208 162 135 227 288 174 123 51 131 192 205 262 208 222 189 169 177 205 221 231 259 278 251 228 149 106 244 203
292 295 301 297 293 294 300 304 299 291 272 264 255 221 204 211 269 221 221 187 148 180 180 207 46 329 81 187 196 231 208 235 239 191 183 177 168 196 192 228 272 172 96 176 219 246 216
285 287 294 295 292 278 273 285 293 287 273 247 248 235 224 225 260 243 245 252 246 219 158 213 246 166 197 144 235 271 245 243 200 264 107 245 198 182 191 219 251 205 224 229 250 238 234